Showing default

OV1-2, 1613

Orbit data source: Space-Track

OV1-2, 1613 is a payload satellite owned by USAF OAR (US) in LEO that was launched on Tue, 05 Oct 1965 UTC via an ATLAS D launch vehicle from the Air Force Western Test Range (AFWTR). Payload-class satellites include a variety of spacecraft equipped with specific instruments for various scientific and technological missions. These include communications satellites like Starlink; space stations such as the ISS; scientific satellites like the Hubble; Earth observation satellites from companies like Planet Labs, Umbra, and HawkEye 360; GPS; miniature CubeSats for education and research; and military/defense satellites.

Not visible in the next 10 days
Identifier
1613, 1965-078A
Orbit
LEO
Country
Flag of USUS
Related business
Manufacturer
GD/Convair
Mission
Civil Science
Bus & Motor
OV1, Unknown motor
Mass
86 kg wet, 86 kg dry
Launch date (UTC)
1965-10-05 (60 years ago)
Launch vehicle
ATLAS D
Launch site
Air Force Western Test Range (AFWTR)
Object type
Payload
Rocket body
Debris
Shape & HBR
Domed Cyl, 0.7 m
Radar Cross Section
0.946 m², Medium (>0.1 m² and < 1m²)

Expand to show TLE details & history
Last TLE update: 17 hours ago

TLE from 17 hours ago
0 OV1-2
1 01613U 65078A   25258.20170439  .00010024  00000-0  99600-3 0  9999
2 01613 144.2302 242.1889 1140654  83.9994 288.9235 12.98243436678927
Epoch: 2025-09-15T04:50Z
TLE epoch observation values (Epoch: 2025-09-15T04:50:27.259Z)
Latitude
0.00002°
Longitude
175.16554°
Altitude
1,078.655 km
Speed
7.404 km/s
True Right ascension
16h 08m 45s
True Declination
0° 00' 00"
Sunlit
Object was in daylight at epoch
Visualization orbit readout
Latitude
Unknown
Longitude
Unknown
Altitude
Unknown
Speed
Unknown
Apparent Right ascension
Unknown
Apparent Declination
Unknown
Sunlit
N/A
Visualization observer readout
Local Sidereal Time
14:41:39
Azimuth
Unknown
Elevation
Unknown
Doppler factor
Unknown
Orbital elements
Apogee altitude
2,144.448 km
Perigee altitude
399.25 km
Semi-major axis
7,649.986 km
Eccentricity
0.11407
Inclination
144.2302°
RAAN
242.1889°
Arg. of periapsis
83.9994°
True anomaly
276.07005°
Mean anomaly
288.9235°
Eccentric anomaly
282.54404°
Mean motion
3.24379 °/min
Orbital period
110.98 mins
BSTAR
0.000996
Loading maneuver chart data...
Computing Atmospheric mass density...
Loading historical data...
Loading historical data...
Loading historical data...
Loading historical data...
Loading historical data...
Loading historical data...
Loading historical data...
Other satellites on launch #78 in the year 1965 (1965-10-05 UTC)

Documentation

Showing up to 5 results
|